Weather History for Silver City, NM

Change the Weather History Date:

Wednesday, February 12, 2014

  Actual Average (KDMN) Record (KDMN)
Temperature  
Mean Temperature 46 °F 46 °F  
Max Temperature 62 °F 62 °F 80 °F (1957)
Min Temperature 30 °F 31 °F 14 °F (1965)
Degree Days  
Heating Degree Days 19    
Moisture  
Dew Point 8 °F    
Average Humidity 23    
Maximum Humidity 44    
Minimum Humidity 11    
Precipitation  
Precipitation 0.00 in 0.02 in 0.75 in (1949)
Month to date precipitation 0.26  
Year to date precipitation 0.87  
Sea Level Pressure  
Sea Level Pressure 30.18 in    
Wind  
Wind Speed 9 mph (NW)    
Max Wind Speed 16 mph    
Max Gust Speed 24 mph    
Visibility 10 miles    
Events Thunderstorm    
T = Trace of Precipitation, MM = Missing Value Source: NWS Daily Summary

Daily Weather History Graph

Daily Weather History Graph

Search for Another Location

Airport:

Trip Planner

Search our weather history database for the weather conditions in past years. The results will help you decide how hot, cold, wet, or windy it might be!

Date:

Astronomy

Feb. 12, 2014 Rise Set
Actual Time 6:58 AM MST 5:55 PM MST
Civil Twilight 6:33 AM MST 6:21 PM MST
Nautical Twilight 6:04 AM MST 6:50 PM MST
Astronomical Twilight 5:35 AM MST 7:18 PM MST
Moon 4:14 PM MST (2/12) 5:14 AM MST (2/12)
Length of Visible Light 11h 47m
Length of Day
10h 57m
Waxing Gibbous, 96% of the Moon is Illuminated
Feb 12
Waxing Gibbous
Feb 14
Full
Feb 22
Last Quarter
Mar 1
New
Mar 8
First Quarter

Hourly Weather History & Observations

Time (MST) Temp. Windchill Dew Point Humidity Pressure Visibility Wind Dir Wind Speed Gust Speed Precip Events Conditions
12:15 AM 32.0 °F 25.6 °F 12.2 °F 44% 30.15 in 10.0 mi NW 6.9 mph - N/A   Clear
12:35 AM 32.0 °F 23.6 °F 10.4 °F 41% 30.15 in 10.0 mi NNW 10.4 mph - N/A   Clear
12:55 AM 32.0 °F 23.0 °F 10.4 °F 41% 30.16 in 10.0 mi North 11.5 mph - N/A   Clear
1:15 AM 32.0 °F 24.2 °F 10.4 °F 41% 30.16 in 10.0 mi NNW 9.2 mph - N/A   Clear
1:35 AM 32.0 °F 24.8 °F 10.4 °F 41% 30.16 in 10.0 mi NNW 8.1 mph - N/A   Clear
1:55 AM 32.0 °F 22.5 °F 10.4 °F 41% 30.15 in 10.0 mi North 12.7 mph - N/A   Clear
2:15 AM 32.0 °F 22.1 °F 10.4 °F 41% 30.15 in 10.0 mi North 13.8 mph - N/A   Clear
2:35 AM 32.0 °F 22.1 °F 10.4 °F 41% 30.15 in 10.0 mi North 13.8 mph - N/A   Clear
2:55 AM 32.0 °F 23.6 °F 10.4 °F 41% 30.16 in 10.0 mi NNW 10.4 mph - N/A   Clear
3:15 AM 35.6 °F 27.5 °F 8.6 °F 33% 30.16 in 10.0 mi NNW 11.5 mph - N/A   Clear
3:35 AM 35.6 °F 27.5 °F 6.8 °F 30% 30.16 in 10.0 mi NNW 11.5 mph - N/A   Clear
3:55 AM 35.6 °F 26.2 °F 6.8 °F 30% 30.15 in 10.0 mi NNW 15.0 mph - N/A   Clear
4:15 AM 35.6 °F 26.6 °F 5.0 °F 28% 30.16 in 10.0 mi NNW 13.8 mph - N/A   Clear
4:35 AM 37.4 °F 29.8 °F 5.0 °F 26% 30.17 in 10.0 mi NW 11.5 mph - N/A   Clear
4:55 AM 35.6 °F 27.1 °F 5.0 °F 28% 30.18 in 10.0 mi NNW 12.7 mph - N/A   Clear
5:15 AM 33.8 °F 23.9 °F 5.0 °F 30% 30.19 in 10.0 mi NNW 15.0 mph - N/A   Clear
5:35 AM 33.8 °F 25.8 °F 3.2 °F 28% 30.19 in 10.0 mi NNW 10.4 mph - N/A   Clear
5:55 AM 32.0 °F 23.6 °F 3.2 °F 30% 30.19 in 10.0 mi NNW 10.4 mph - N/A   Clear
6:15 AM 32.0 °F 25.6 °F 5.0 °F 32% 30.20 in 10.0 mi North 6.9 mph - N/A   Clear
6:35 AM 30.2 °F 21.3 °F 5.0 °F 34% 30.20 in 10.0 mi North 10.4 mph - N/A   Clear
6:55 AM 33.8 °F 25.8 °F 6.8 °F 32% 30.21 in 10.0 mi North 10.4 mph - N/A   Clear
7:15 AM 32.0 °F 28.7 °F 6.8 °F 35% 30.22 in 10.0 mi SE 3.5 mph - N/A   Clear
7:35 AM 35.6 °F - 6.8 °F 30% 30.23 in 10.0 mi Calm Calm - N/A   Clear
7:55 AM 39.2 °F 37.0 °F 6.8 °F 26% 30.24 in 10.0 mi SE 3.5 mph - N/A   Clear
8:15 AM 42.8 °F - 8.6 °F 25% 30.25 in 10.0 mi Calm Calm - N/A   Clear
8:35 AM 44.6 °F - 6.8 °F 21% 30.27 in 10.0 mi Calm Calm - N/A   Clear
8:55 AM 48.2 °F - 8.6 °F 20% 30.27 in 10.0 mi SW 4.6 mph - N/A   Clear
9:15 AM 48.2 °F - 6.8 °F 19% 30.27 in 10.0 mi Calm Calm - N/A   Clear
9:35 AM 50.0 °F - 6.8 °F 17% 30.28 in 10.0 mi SSE 4.6 mph - N/A   Clear
9:55 AM 50.0 °F - 8.6 °F 19% 30.27 in 10.0 mi SE 4.6 mph - N/A   Clear
10:15 AM 53.6 °F - 10.4 °F 18% 30.28 in 10.0 mi SSE 4.6 mph - N/A   Clear
10:35 AM 53.6 °F - 10.4 °F 18% 30.28 in 10.0 mi SE 6.9 mph - N/A   Clear
10:55 AM 53.6 °F - 10.4 °F 18% 30.27 in 10.0 mi SSE 6.9 mph - N/A   Clear
11:15 AM 55.4 °F - 8.6 °F 15% 30.26 in 10.0 mi SSE 6.9 mph - N/A   Clear
11:35 AM 55.4 °F - 8.6 °F 15% 30.25 in 10.0 mi East 3.5 mph - N/A   Clear
11:55 AM 57.2 °F - 8.6 °F 14% 30.24 in 10.0 mi SSE 3.5 mph - N/A   Clear
12:15 PM 57.2 °F - 6.8 °F 13% 30.23 in 10.0 mi SSW 4.6 mph - N/A   Clear
12:35 PM 57.2 °F - 6.8 °F 13% 30.21 in 10.0 mi SW 9.2 mph - N/A   Clear
12:55 PM 57.2 °F - 8.6 °F 14% 30.20 in 10.0 mi South 3.5 mph - N/A   Clear
1:15 PM 59.0 °F - 10.4 °F 15% 30.18 in 10.0 mi SSE 5.8 mph - N/A   Clear
1:35 PM 59.0 °F - 10.4 °F 15% 30.18 in 10.0 mi SSW 11.5 mph - N/A   Clear
1:55 PM 59.0 °F - 10.4 °F 15% 30.16 in 10.0 mi SW 6.9 mph - N/A   Clear
2:15 PM 60.8 °F - 10.4 °F 14% 30.16 in 10.0 mi SW 10.4 mph - N/A   Clear
2:35 PM 60.8 °F - 10.4 °F 14% 30.15 in 10.0 mi SSW 6.9 mph - N/A   Clear
2:55 PM 62.6 °F - 10.4 °F 13% 30.14 in 10.0 mi SSW 10.4 mph - N/A   Clear
3:15 PM 62.6 °F - 10.4 °F 13% 30.13 in 10.0 mi SW 11.5 mph - N/A   Clear
3:35 PM 62.6 °F - 10.4 °F 13% 30.13 in 10.0 mi SSW 13.8 mph 21.9 mph N/A   Clear
3:55 PM 62.6 °F - 10.4 °F 13% 30.13 in 10.0 mi SSW 16.1 mph 24.2 mph N/A   Clear
4:15 PM 62.6 °F - 8.6 °F 12% 30.12 in 10.0 mi SW 13.8 mph - N/A   Clear
4:35 PM 62.6 °F - 6.8 °F 11% 30.12 in 10.0 mi West 9.2 mph 16.1 mph N/A   Clear
4:55 PM 60.8 °F - 6.8 °F 12% 30.13 in 10.0 mi WNW 13.8 mph - N/A   Clear
5:15 PM 60.8 °F - 6.8 °F 12% 30.14 in 10.0 mi West 16.1 mph - N/A   Clear
5:35 PM 59.0 °F - 6.8 °F 13% 30.14 in 10.0 mi West 9.2 mph 16.1 mph N/A   Clear
5:55 PM 57.2 °F - 8.6 °F 14% 30.13 in 10.0 mi West 6.9 mph - N/A   Clear
6:15 PM 53.6 °F - 6.8 °F 15% 30.14 in 10.0 mi WNW 10.4 mph - N/A   Clear
6:35 PM 51.8 °F - 5.0 °F 15% 30.14 in 10.0 mi NW 10.4 mph - N/A   Clear
6:55 PM 48.2 °F - 5.0 °F 17% 30.16 in 10.0 mi NW 8.1 mph - N/A   Clear
7:15 PM 48.2 °F - 5.0 °F 17% 30.15 in 10.0 mi NNW 5.8 mph - N/A   Clear
7:35 PM 48.2 °F - 5.0 °F 17% 30.15 in 10.0 mi NNW 10.4 mph - N/A Thunderstorm Clear
7:55 PM 46.4 °F 41.1 °F 5.0 °F 18% 30.15 in 10.0 mi NNW 11.5 mph - N/A   Clear
8:15 PM 46.4 °F 42.4 °F 5.0 °F 18% 30.16 in 10.0 mi North 8.1 mph - N/A   Clear
8:35 PM 44.6 °F 39.2 °F 5.0 °F 20% 30.16 in 10.0 mi North 10.4 mph - N/A   Clear
9:15 PM 44.6 °F 38.8 °F 6.8 °F 21% 30.15 in 10.0 mi NNW 11.5 mph - N/A   Clear
9:35 PM 44.6 °F 38.8 °F 6.8 °F 21% 30.14 in 10.0 mi NNW 11.5 mph - N/A   Clear
9:55 PM 44.6 °F 38.8 °F 6.8 °F 21% 30.14 in 10.0 mi NNW 11.5 mph - N/A   Clear
10:15 PM 46.4 °F 40.7 °F 6.8 °F 20% 30.14 in 10.0 mi NNW 12.7 mph - N/A   Clear
10:35 PM 46.4 °F 41.1 °F 6.8 °F 20% 30.14 in 10.0 mi NNW 11.5 mph - N/A   Clear
10:55 PM 46.4 °F 41.9 °F 6.8 °F 20% 30.14 in 10.0 mi NNW 9.2 mph - N/A   Clear
11:15 PM 46.4 °F 42.4 °F 8.6 °F 22% 30.14 in 10.0 mi NNW 8.1 mph - N/A   Clear
11:35 PM 44.6 °F 41.4 °F 8.6 °F 23% 30.14 in 10.0 mi NNW 5.8 mph - N/A   Clear
11:55 PM 46.4 °F 41.1 °F 8.6 °F 22% 30.14 in 10.0 mi North 11.5 mph - N/A   Clear